Location: Narrabri
(30.3170°S, 149.7830°E)
Time: 09:16:49
(UTC+10:00)

ISS - Visible Passes

Search period start: 18 August 2017 00:00
Search period end: 28 August 2017 00:00
Orbit: 401 x 408 km, 51.6° (Epoch: 18 August)

Date Brightness Start Highest point End Pass type
(mag) Time Alt. Az. Time Alt. Az. Time Alt. Az.
18 Aug -1.7 05:38:31 10° SSW 05:41:20 24° SE 05:44:08 10° E visible
19 Aug -1.1 04:47:50 12° SSE 04:48:52 14° SE 04:50:41 10° ESE visible
20 Aug -3.6 05:30:44 16° SW 05:33:19 69° SE 05:36:37 10° NE visible
21 Aug -2.1 04:41:04 31° SE 04:41:04 31° SE 04:43:58 10° ENE visible
22 Aug -3.1 05:24:13 29° W 05:25:05 35° NW 05:28:08 10° NNE visible
23 Aug -1.7 04:34:46 23° NE 04:34:46 23° NE 04:36:09 10° NE visible
23 Aug -1.0 19:28:50 10° NNW 19:29:10 12° NNW 19:29:10 12° NNW visible
24 Aug -2.2 18:37:23 10° N 18:39:45 19° NE 18:39:53 19° ENE visible
25 Aug -3.0 19:20:25 10° NW 19:23:14 51° WSW 19:23:14 51° WSW visible
26 Aug -3.7 18:28:05 10° NNW 18:31:19 58° NE 18:33:46 16° SE visible
27 Aug -1.5 19:12:51 10° W 19:15:28 21° SW 19:16:51 17° S visible
